Location: ??????
(56.0120°N, 39.1740°E)
Time: 08:02:06
(UTC+00:00)

Cosmos 2100 Rocket - Pass Details

Date: 14 April 2026
Orbit: 956 x 999 km, 82.9° (Epoch: 9 May)

Event Time Altitude Azimuth Distance (km) Brightness Sun altitude
Exits shadow 20:47:42 53° 170° (S) 1,164 4.0 -23.9°
Maximum altitude 20:49:13 78° 98° (E) 986 3.9 -24.0°
Drops below altitude 10° 20:55:25 10° 13° (NNE) 2,714 7.3 -24.1°
Sets 20:57:56 0° 13° (NNE) 3,670 8.2 -24.1°
